Location: ????????
(55.5667°N, 37.5833°E)
Time: 09:27:58
(UTC+00:00)

CZ-2D R/B - Pass Details

Date: 14 April 2026
Orbit: 789 x 841 km, 98.9° (Epoch: 19 May)

Event Time Altitude Azimuth Distance (km) Brightness Sun altitude
Rises 23:45:28 0° 20° (NNE) 3,302 6.7 -18.9°
Reaches altitude 10° 23:47:59 10° 29° (NNE) 2,371 5.8 -18.7°
Maximum altitude 23:52:49 37° 97° (E) 1,227 3.3 -18.3°
Enters shadow 23:57:22 12° 162° (SSE) 2,272 4.1 -17.9°
